Weather History for KBID - January, 2013

Change the Weather History Date:

Wednesday, January 30, 2013

  Actual Average Record
Temperature  
Mean Temperature 48 °F -  
Max Temperature 55 °F 38 °F 55 °F (2013)
Min Temperature 42 °F 25 °F 9 °F (1973)
Degree Days  
Heating Degree Days 16    
Moisture  
Dew Point 48 °F    
Average Humidity 91    
Maximum Humidity 94    
Minimum Humidity 81    
Precipitation  
Precipitation 0.00 in - - ()
Sea Level Pressure  
Sea Level Pressure 29.82 in    
Wind  
Wind Speed 14 mph (South)    
Max Wind Speed 25 mph    
Max Gust Speed 36 mph    
Visibility 7 miles    
Events      
Averages and records for this station are not official NWS values.
T = Trace of Precipitation, MM = Missing Value Source: NWS Daily Summary

Daily Weather History Graph

Daily Weather History Graph

Search for Another Location

Airport or City:

Trip Planner

Search our weather history database for the weather conditions in past years. The results will help you decide how hot, cold, wet, or windy it might be!

Date:

Astronomy

Jan. 30, 2013 Rise Set
Actual Time 6:58 AM EST 5:00 PM EST
Civil Twilight 6:29 AM EST 5:30 PM EST
Nautical Twilight 5:56 AM EST 6:03 PM EST
Astronomical Twilight 5:24 AM EST 6:35 PM EST
Moon 8:59 PM EST (1/30) 8:22 AM EST (1/30)
Length of Visible Light 11h 00m
Length of Day
10h 01m
Waning Gibbous, 88% of the Moon is Illuminated
Jan 30
Waning Gibbous
Feb 3
Last Quarter
Feb 10
New
Feb 17
First Quarter
Feb 25
Full

Hourly Weather History & Observations

Time (EST) Temp. Windchill Dew Point Humidity Pressure Visibility Wind Dir Wind Speed Gust Speed Precip Events Conditions
12:15 AM 42.8 °F 41.1 °F 37.4 °F 81% 30.15 in 10.0 mi SE 3.5 mph - N/A   Overcast
12:35 AM 42.8 °F 39.3 °F 37.4 °F 81% 30.14 in 10.0 mi South 5.8 mph - N/A   Overcast
12:55 AM 42.8 °F 38.6 °F 39.2 °F 87% 30.12 in 10.0 mi SSE 6.9 mph - N/A   Overcast
1:35 AM 42.8 °F 37.0 °F 39.2 °F 87% 30.09 in 10.0 mi SSE 10.4 mph - N/A   Overcast
1:55 AM 44.6 °F 39.7 °F 39.2 °F 81% 30.09 in 10.0 mi SSE 9.2 mph - N/A   Overcast
2:15 AM 44.6 °F 39.2 °F 41.0 °F 87% 30.08 in 10.0 mi SSE 10.4 mph - N/A   Overcast
2:35 AM 44.6 °F 39.2 °F 41.0 °F 87% 30.07 in 10.0 mi SE 10.4 mph - N/A   Overcast
2:55 AM 44.6 °F 38.8 °F 41.0 °F 87% 30.07 in 10.0 mi SE 11.5 mph - N/A   Overcast
3:15 AM 44.6 °F 39.2 °F 41.0 °F 87% 30.05 in 10.0 mi SE 10.4 mph - N/A   Overcast
3:55 AM 44.6 °F 37.4 °F 42.8 °F 93% 30.03 in 10.0 mi SSE 16.1 mph - N/A   Overcast
4:15 AM 44.6 °F 37.8 °F 42.8 °F 93% 30.02 in 10.0 mi SSE 15.0 mph 21.9 mph N/A   Overcast
4:35 AM 44.6 °F 37.8 °F 42.8 °F 93% 30.01 in 10.0 mi SSE 15.0 mph - N/A   Overcast
4:55 AM 46.4 °F 40.4 °F 42.8 °F 87% 30.01 in 10.0 mi SSE 13.8 mph - N/A   Overcast
5:15 AM 46.4 °F 40.7 °F 44.6 °F 93% 30.01 in 10.0 mi South 12.7 mph - N/A   Overcast
5:35 AM 46.4 °F 40.7 °F 44.6 °F 93% 29.99 in 10.0 mi South 12.7 mph - N/A   Overcast
6:15 AM 48.2 °F - 44.6 °F 87% 29.98 in 10.0 mi South 12.7 mph - N/A   Overcast
6:35 AM 48.2 °F - 46.4 °F 93% 29.98 in 10.0 mi South 15.0 mph 20.7 mph N/A   Overcast
6:55 AM 48.2 °F - 46.4 °F 93% 29.97 in 8.0 mi South 16.1 mph - N/A   Mostly Cloudy
7:15 AM 48.2 °F - 46.4 °F 93% 29.97 in 5.0 mi South 15.0 mph - N/A   Overcast
7:35 AM 48.2 °F - 46.4 °F 93% 29.96 in 5.0 mi South 15.0 mph - N/A   Overcast
7:55 AM 48.2 °F - 46.4 °F 93% 29.95 in 5.0 mi South 12.7 mph - N/A   Overcast
8:35 AM 51.8 °F - 48.2 °F 88% 29.93 in 5.0 mi South 16.1 mph - N/A   Mostly Cloudy
8:55 AM 51.8 °F - 48.2 °F 88% 29.92 in 6.0 mi South 17.3 mph 23.0 mph N/A   Mostly Cloudy
9:15 AM 51.8 °F - 48.2 °F 88% 29.91 in 5.0 mi South 16.1 mph - N/A   Overcast
9:35 AM 51.8 °F - 48.2 °F 88% 29.90 in 5.0 mi South 16.1 mph 21.9 mph N/A   Overcast
9:55 AM 51.8 °F - 48.2 °F 88% 29.89 in 4.0 mi South 21.9 mph 26.5 mph N/A   Overcast
10:15 AM 53.6 °F - 50.0 °F 88% 29.89 in 5.0 mi South 21.9 mph 29.9 mph N/A   Overcast
10:35 AM 53.6 °F - 50.0 °F 88% 29.88 in 5.0 mi SSW 19.6 mph - N/A   Overcast
10:55 AM 53.6 °F - 50.0 °F 88% 29.87 in 4.0 mi South 21.9 mph 26.5 mph N/A   Overcast
11:15 AM 51.8 °F - 50.0 °F 94% 29.86 in 3.0 mi South 19.6 mph 29.9 mph N/A   Overcast
11:35 AM 53.6 °F - 51.8 °F 94% 29.84 in 4.0 mi South 19.6 mph 27.6 mph N/A   Overcast
11:55 AM 53.6 °F - 50.0 °F 88% 29.82 in 5.0 mi South 20.7 mph 29.9 mph N/A   Overcast
12:15 PM 53.6 °F - 51.8 °F 94% 29.80 in 5.0 mi South 18.4 mph 29.9 mph N/A   Overcast
12:35 PM 53.6 °F - 50.0 °F 88% 29.79 in 5.0 mi South 18.4 mph 26.5 mph N/A   Scattered Clouds
12:55 PM 53.6 °F - 50.0 °F 88% 29.79 in 5.0 mi SSW 18.4 mph - N/A   Scattered Clouds
1:15 PM 53.6 °F - 51.8 °F 94% 29.76 in 5.0 mi SSW 19.6 mph 26.5 mph N/A   Overcast
1:35 PM 53.6 °F - 51.8 °F 94% 29.76 in 5.0 mi SSW 20.7 mph 31.1 mph N/A   Overcast
1:55 PM 55.4 °F - 51.8 °F 88% 29.75 in 5.0 mi SSW 21.9 mph 29.9 mph N/A   Overcast
2:15 PM 55.4 °F - 51.8 °F 88% 29.75 in 5.0 mi SSW 21.9 mph 29.9 mph N/A   Overcast
2:35 PM 55.4 °F - 51.8 °F 88% 29.75 in 4.0 mi SSW 19.6 mph 28.8 mph N/A   Overcast
2:55 PM 53.6 °F - 51.8 °F 94% 29.74 in 2.0 mi SSW 20.7 mph 28.8 mph N/A   Overcast
3:35 PM 53.6 °F - 51.8 °F 94% 29.72 in 4.0 mi SSW 20.7 mph 28.8 mph N/A   Overcast
3:55 PM 53.6 °F - 51.8 °F 94% 29.72 in 3.0 mi SSW 17.3 mph 27.6 mph N/A   Overcast
4:35 PM 53.6 °F - 51.8 °F 94% 29.71 in 5.0 mi SSW 23.0 mph 29.9 mph N/A   Overcast
4:55 PM 53.6 °F - 51.8 °F 94% 29.71 in 5.0 mi SSW 20.7 mph 27.6 mph N/A   Overcast
5:15 PM 53.6 °F - 51.8 °F 94% 29.71 in 4.0 mi SSW 19.6 mph 31.1 mph N/A   Overcast
5:35 PM 53.6 °F - 51.8 °F 94% 29.70 in 5.0 mi SSW 19.6 mph 27.6 mph N/A   Overcast
5:55 PM 53.6 °F - 51.8 °F 94% 29.68 in 6.0 mi South 25.3 mph 31.1 mph N/A   Overcast
6:15 PM 53.6 °F - 51.8 °F 94% 29.68 in 6.0 mi SSW 20.7 mph 28.8 mph N/A   Overcast
6:35 PM 53.6 °F - 50.0 °F 88% 29.68 in 5.0 mi SSW 23.0 mph 28.8 mph N/A   Overcast
6:55 PM 53.6 °F - 51.8 °F 94% 29.67 in 6.0 mi South 23.0 mph 32.2 mph N/A   Overcast
7:15 PM 53.6 °F - 50.0 °F 88% 29.66 in 5.0 mi SSW 21.9 mph 31.1 mph N/A   Overcast
7:35 PM 53.6 °F - 51.8 °F 94% 29.66 in 7.0 mi SSW 21.9 mph 29.9 mph N/A   Overcast
7:55 PM 53.6 °F - 51.8 °F 94% 29.66 in 7.0 mi SSW 20.7 mph 27.6 mph N/A   Overcast
8:15 PM 53.6 °F - 51.8 °F 94% 29.65 in 7.0 mi SSW 20.7 mph 29.9 mph N/A   Overcast
8:35 PM 53.6 °F - 51.8 °F 94% 29.63 in 7.0 mi SSW 21.9 mph 27.6 mph N/A   Overcast
8:55 PM 53.6 °F - 51.8 °F 94% 29.62 in 7.0 mi SSW 20.7 mph 31.1 mph N/A   Overcast
9:15 PM 53.6 °F - 51.8 °F 94% 29.61 in 7.0 mi SSW 20.7 mph 31.1 mph N/A   Overcast
9:35 PM 53.6 °F - 51.8 °F 94% 29.60 in 7.0 mi SSW 23.0 mph 28.8 mph N/A   Overcast
9:55 PM 53.6 °F - 51.8 °F 94% 29.59 in 7.0 mi SSW 23.0 mph 31.1 mph N/A   Overcast
10:15 PM 53.6 °F - 51.8 °F 94% 29.58 in 7.0 mi SSW 20.7 mph 29.9 mph N/A   Overcast
10:35 PM 53.6 °F - 51.8 °F 94% 29.57 in 7.0 mi South 24.2 mph 31.1 mph N/A   Overcast
10:55 PM 53.6 °F - 51.8 °F 94% 29.57 in 7.0 mi SSW 24.2 mph 35.7 mph N/A   Overcast
11:15 PM 53.6 °F - 51.8 °F 94% 29.56 in 6.0 mi South 21.9 mph 28.8 mph N/A   Overcast
11:35 PM 53.6 °F - 51.8 °F 94% 29.55 in 6.0 mi South 19.6 mph 29.9 mph N/A   Overcast
11:55 PM 53.6 °F - 51.8 °F 94% 29.53 in 7.0 mi South 24.2 mph 29.9 mph N/A   Mostly Cloudy